Regional Weather Roundup
Issued by NWS

Home | Current Version | Previous Version | Text Only | Print | Product List | Glossary On
Versions: 1 2 3 4 5 6 7 8 9 10 11 12 13 14 15 16 17 18 19 20 21 22 23 24 25 26 27 28 29 30 31 32 33 34 35 36 37 38 39 40 41 42 43 44 45 46 47 48 49 50
000
ASUS46 KSTO 240215
RWRCA

NORTHERN AND CENTRAL CA REGIONAL WEATHER ROUNDUP
NATIONAL WEATHER SERVICE SACRAMENTO CA
700 PM PDT THU MAR 23 2017

NOTE: FAIR INDICATES FEW OR NO CLOUDS BELOW 12,000 FEET WITH NO
SIGNIFICANT WEATHER AND/OR OBSTRUCTIONS TO VISIBILITY.

CAZ001-003-240300-
NORTHWEST AREA

CITY           SKY/WX    TMP DP  RH WIND       PRES   REMARKS
CRESCENT CITY  LGT RAIN  48  44  86 S20G29    30.03F
UKIAH          CLOUDY    51  36  56 SW6       30.20R
$$

CAZ006-505>513-240300-
BAY AREA

CITY           SKY/WX    TMP DP  RH WIND       PRES   REMARKS
SANTA ROSA     LGT RAIN  53  45  74 CALM      30.20F
SAN RAFAEL     N/A       55  MM  MM MISG
NAPA           CLOUDY    56  44  64 W13       30.21F
CONCORD        CLOUDY    55  44  66 SW9       30.21F
OAKLAND CITY   N/A      MM  MM  MM MISG
OAKLAND        CLOUDY    57  45  64 W8        30.22F
SAN FRAN CITY  N/A       54  MM  64 MISG
SAN FRAN ARPT  CLOUDY    55  43  63 SW8       30.22F
LIVERMORE      CLOUDY    53  40  61 W9        30.21R
HAYWARD        CLOUDY    56  41  57 W8        30.22F
REDWOOD CITY   N/A       55  MM  60 MISG
MOFFETT ARPT   MOCLDY    55  42  61 NW10      30.22R
SAN JOSE ARPT  MOCLDY    57  43  59 NW14      30.22R
$$
CAZ034-037-514>518-240300-
CENTRAL COAST

CITY           SKY/WX    TMP DP  RH WIND       PRES   REMARKS
WATSONVILLE    PTCLDY    52  46  80 SW3       30.24S
SALINAS        PTCLDY    55  44  66 W6        30.24S
MONTEREY       PTCLDY    54  44  69 W7        30.25S
SAN LUIS OBISP CLEAR     55  47  74 NW13      30.22R
SANTA MARIA    CLEAR     53  47  79 NW22G30   30.22R
$$
CAZ015-016-240300-
NORTHERN SACRAMENTO VALLEY

CITY           SKY/WX    TMP DP  RH WIND       PRES   REMARKS
REDDING        CLOUDY    58  46  64 S13       30.11F
RED BLUFF      CLOUDY    58  45  62 S12       30.13F
OROVILLE       CLOUDY    59  43  55 SE12      30.18S
$$
CAZ016>018-240300-
SOUTHERN SACRAMENTO VALLEY

CITY           SKY/WX    TMP DP  RH WIND       PRES   REMARKS
AUBURN         MOCLDY    54  43  66 S6        30.21R
BEALE AFB      CLOUDY    58  45  62 S8        30.17R
LINCOLN        CLOUDY    59  43  55 SW8       30.18S
MARYSVILLE     CLOUDY    59  42  53 S10       30.18S
SAC INTL ARPT  CLOUDY    59  46  62 S12       30.18R
MATHER AIRPORT CLOUDY    59  48  67 SW6       30.20R
DOWNTOWN SAC   N/A       60  MM  MM MISG
SAC EXEC ARPT  CLOUDY    58  47  66 SW10      30.20R
VACAVILLE      CLOUDY    57  45  64 SW8       30.20S
$$
CAZ019>021-240300-
SAN JOAQUIN VALLEY

CITY           SKY/WX    TMP DP  RH WIND       PRES   REMARKS
STOCKTON       MOCLDY    59  47  64 W6        30.19S
MODESTO        PTCLDY    63  46  54 SW3       30.19S
MERCED         CLEAR     60  43  53 CALM      30.20R
LEMOORE        PTCLDY    58  44  60 SE6       30.22R
FRESNO         PTCLDY    61  42  49 W7        30.22R
HANFORD        CLEAR     57  50  77 S3        30.22R
PORTERVILLE    CLEAR     58  46  64 W3        30.23R
BAKERSFIELD    PTCLDY    59  41  51 W6        30.21R
$$
CAZ011-012-071-240300-
NORTHERN MOUNTAINS

CITY           SKY/WX    TMP DP  RH WIND       PRES   REMARKS
YREKA          CLOUDY    49  34  56 S20       30.02R
MOUNT SHASTA   CLOUDY    44  32  62 SE6       30.09R
ALTURAS        MOCLDY    46  30  53 SW16G22   30.05S
$$
CAZ011-012-071-240300-
SIERRA NEVADA MTNS

CITY           SKY/WX    TMP DP  RH WIND       PRES   REMARKS
BLUE CANYON    CLOUDY    37  36  96 VRB6      30.19R WCI  32
TRUCKEE        CLEAR     37  27  65 SW12      30.16R WCI  30
TAHOE VLY ARPT PTCLDY    40  28  62 S9        30.15S WCI  34
MAMMOTH LAKES  FAIR      42  23  47 W9        30.15R
$$



USA.gov is the U.S. government's official web portal to all federal, state and local government web resources and services.